Weather Roundup
Issued by NWS Corpus Christi, TX

Home | Current Version | Previous Version | Text Only | Print | Product List | Glossary On
Versions: 1 2 3 4 5 6 7 8 9 10 11 12 13 14 15 16 17 18 19 20 21 22 23 24 25 26 27 28 29 30 31 32 33 34 35 36 37 38 39 40 41 42 43 44 45 46 47 48 49 50
000
ASUS44 KCRP 310510
HRRCRP

SOUTH TEXAS REGIONAL WEATHER ROUNDUP
NATIONAL WEATHER SERVICE CORPUS CHRISTI TX
1200 AM CDT FRI JUL 31 2015


TXZ229>244-310600-
...CORPUS CHRISTI AREA OBSERVATIONS...

CITY           SKY/WX    TMP DP  RH WIND       PRES   REMARKS
CORPUS CHRISTI MOCLDY    82  74  76 S9        30.03R
NAS CORPUS CHR CLEAR     82  75  79 S7        30.02S
ROCKPORT       CLEAR     83  75  77 S6        30.02R HX  90
KINGSVILLE NAS PTCLDY    78  77  96 S5        30.04R
ALICE          CLEAR     78  74  87 S6        30.04R
FALFURRIAS       N/A     78  74  87 E3        30.04R
$$

...VICTORIA AREA OBSERVATIONS...

CITY           SKY/WX    TMP DP  RH WIND       PRES   REMARKS
VICTORIA       CLEAR     80  75  84 S7        30.02R
BEEVILLE       FAIR      80  73  78 S5        30.04R
PLEASANTON     CLEAR     84  64  50 CALM      30.05R
SAN ANTONIO    CLEAR     89  66  46 S8        30.05R HX  91
$$

...LAREDO AREA OBSERVATIONS...

CITY           SKY/WX    TMP DP  RH WIND       PRES   REMARKS
LAREDO         CLEAR     87  68  53 SE10      30.06R HX  90
COTULLA        PTCLDY    87  66  49 SE8       30.04R
DEL RIO        CLEAR     85  59  41 E6        30.04R
MCALLEN        CLEAR     85  75  72 S9        30.03S HX  93
HEBBRONVILLE     N/A     78  69  73 E3        30.07R
$$

...OTHER TEXAS OBSERVATIONS...

CITY           SKY/WX    TMP DP  RH WIND       PRES   REMARKS
BROWNSVILLE    CLEAR     77  74  90 SE3       30.03S
HOUSTON        MOCLDY    81  75  82 E9        30.03R
COL. STATION   PTCLDY    84  72  67 E5        30.02R
AUSTIN         PTCLDY    80  72  76 CALM      30.03R
WACO           CLEAR     83  72  69 CALM      30.02S
FORT WORTH     PTCLDY    89  69  51 E14G20    30.04R HX  93
WICHITA FALLS  CLEAR     84  72  67 E14       30.09R
LUBBOCK        MOCLDY    76  68  76 NE6       30.22R
EL PASO        LGT RAIN  81  63  54 N6        30.19R
$$

...MARINE OBSERVATIONS...

STATION/POSITION TIME  SKY/WX   TEMP    WIND        PRES    VSBY  WAVE   SWELL
                                AIR SEA DIR/SP/G                  HT/PER HT/PER
                 (UTC)          (F)     (DEG/KT/KT) (MB)    (MI)  (FT/S) (FT/S)
PORT ARANSAS     0500            83 86  180/ 11/ 13 1017.2R
BUOY 90 E PORT A 0450            85 87  230/  6/  8 1016.7R         1/ 6   2/ 6
BUOY 45 SE BAFFI 0450            84 86  160/  6/  8 1016.6R         1/ 5
BUOY 200 E PT IS 0450            86 87  310/  4/  6 1016.8F         1/ 9   2/ 9
BUOY 15 E GALVES 0450            85 87  120/ 14/ 17 1016.3R         2/ 3
$$


USA.gov is the U.S. government's official web portal to all federal, state and local government web resources and services.